Regional Weather Roundup
Issued by NWS Wakefield, VA

Home | Current Version | Previous Version | Text Only | Print | Product List | Glossary Off
Versions: 1 2 3 4 5 6 7 8 9 10 11 12 13 14 15 16 17 18 19 20 21 22 23 24 25 26 27 28 29 30 31 32 33 34 35 36 37 38 39 40 41 42 43 44 45 46 47 48 49 50

000
ASUS41 KAKQ 020114
RWRAKQ

REGIONAL WEATHER ROUNDUP
NATIONAL WEATHER SERVICE WAKEFIELD VA
900 PM EDT WED JUL 01 2015

Note: "fair" indicates few or no clouds below 12,000 feet with no
significant weather and/or obstructions to visibility. * = Denotes
station may not report precipitation (e.g., rain,snow,etc.),
thunder or fog.

VAZ042-051-052>054-056-020200-
NORTHERN VIRGINIA

CITY           SKY/WX    TMP DP  RH WIND       PRES   REMARKS
WASH NATIONAL  LGT RAIN  74  69  85 S9G26     29.88R
DULLES         PTCLDY    78  60  53 NW7       29.88R
FORT BELVOIR   PTCLDY    73  68  84 SE3       29.87R
QUANTICO       CLOUDY    80  68  66 NW8       29.87R
FREDERICKSBRG* CLEAR     79  71  74 S5        29.86S
STAFFORD*      MOCLDY    76  68  75 CALM      29.90S
WARRENTON      CLEAR     73  72  95 CALM      29.87R
CULPEPER*        N/A     73  69  88 CALM      29.88R
MANASSAS*      PTCLDY    79  70  73 CALM      29.87R
LEESBURG*      PTCLDY    75  64  69 CALM      29.90R
WINCHESTER     CLEAR     73  61  64 CALM      29.90R
FRONT ROYAL*   MOCLDY    73  64  73 N3        29.89R
LURAY*         MOCLDY    77  64  65 CALM      29.90R
$$

VAZ048-049-060>072-079>083-020200-
CENTRAL AND SOUTH CENTRAL VIRGINIA

CITY           SKY/WX    TMP DP  RH WIND       PRES   REMARKS
RICHMOND       PTCLDY    77  69  76 S6        29.88F
CHESTERFIELD*  NOT AVBL
PETERSBURG*    PTCLDY    75  75 100 CALM      29.90S
HANOVER        CLEAR     78  68  71 S6        29.89F
TAPPAHANNOCK*  CLEAR     77  66  69 CALM      29.89S
QUINTON*       FAIR      77  70  79 MISG      29.88F
CHARLOTTSVILLE PTCLDY    78  65  63 SW6       29.88R
GORDONSVILLE*  FAIR      73  70  88 CALM      29.88R
ORANGE*        CLEAR     73  68  83 CALM      29.90R
LOUISA*        CLEAR     73  70  88 CALM      29.88R
BUMPASS*       FAIR      75  69  80 CALM      29.87S
FARMVILLE*     MOCLDY    77  68  73 CALM      29.88S
CREWE*         FAIR      75  70  84 CALM      29.89F
FORT PICKETT*  FAIR      74  71  90 S3        29.91R
CHASE CITY*    FAIR      79  73  81 S3        29.91R
CLARKSVILLE*   FAIR      77  70  78 S6        29.92R
SOUTH HILL*    MOCLDY    76  71  86 CALM      29.98R
LAWRENCEVILLE* NOT AVBL
EMPORIA*         N/A     75  72  88 CALM      29.92S
$$

VAZ088>098-020200-
SOUTHEAST VIRGINIA

CITY           SKY/WX    TMP DP  RH WIND       PRES   REMARKS
NORFOLK        CLEAR     81  66  60 SW7       29.90R
VIRGINIA BEACH PTCLDY    82  67  60 S3        29.90R
NORFOLK NAVAL  PTCLDY    79  67  66 SW5       29.92R
WEST POINT*    CLEAR     81  68  65 CALM      29.90S
SALUDA*        FAIR      78  70  75 SW6       29.89R
NEWPORT NEWS   CLEAR     79  70  74 S6        29.90S
LANGLEY AFB    CLEAR     80  69  68 SW9       29.89R
FORT EUSTIS    CLEAR     80  69  69 VRB5      29.88S
WILLIAMSBURG*  CLEAR     81  72  74 CALM      29.90S
HR EXEC AP*    FAIR      72  66  83 CALM      29.92F
FRANKLIN*      CLEAR     77  71  83 S3        29.91S
WAKEFIELD      CLEAR     75  72  90 CALM      29.90S FOG
$$

VAZ020-022-025-037-045-020200-
WEST CENTRAL AND SOUTHWEST VIRGINIA

CITY           SKY/WX    TMP DP  RH WIND       PRES   REMARKS
STAUNTON*      PTCLDY    75  63  65 CALM      29.93S
WAYNESBORO*    FAIR      73  62  69 S3        29.93S
HOT SPRINGS VA MOCLDY    66  58  74 W6        30.04S
LYNCHBURG      CLOUDY    72  68  87 CALM      29.93R
DANVILLE       CLOUDY    79  68  69 S5        29.92R
SOUTH BOSTON*  CLOUDY    78  70  76 MISG      29.91R
MARTINSVILLE   CLOUDY    78  65  63 SW3       29.96R
ROANOKE        CLOUDY    76  63  64 W7        29.94S
BLACKSBURG     CLOUDY    72  67  85 CALM      30.01S
DUBLIN*        CLOUDY    72  68  87 W3        30.00S
MARION*        CLOUDY    68  65  90 W13       30.05S
HILLSVILLE*    CLOUDY    69  63  81 SW7       30.01S
RICHLANDS*     FAIR      67  64  87 SW8       30.03S
WISE*          CLOUDY    66  64  94 SW6       30.03S
ABINGDON*      CLOUDY    68  68  98 SW9       30.02F
$$

MDZ021>025-VAZ099-100-020200-
SOUTHERN MARYLAND AND THE DELMARVA PENINSULA

CITY           SKY/WX    TMP DP  RH WIND       PRES   REMARKS
PATUXENT RIVER PTCLDY    78  68  71 SW6       29.86R
BAY BRIDGE APT   N/A     77  64  65 CALM      29.87R
LEONARDTOWN    CLEAR     77  66  69 CALM      29.89R
DOVER          MOCLDY    79  69  72 S10       29.85R
GEORGETOWN     MOCLDY    77  70  79 S5        29.87R
EASTON         NOT AVBL
CAMBRIDGE      PTCLDY    77  68  73 CALM      29.87R
SALISBURY      PTCLDY    77  71  82 S5        29.87R
OCEAN CITY     CLEAR     78  68  71 SW5       29.88R
WALLOPS ISLAND CLEAR     78  70  76 SW7       29.89R
ACCOMACK*      CLEAR     77  72  83 SW5       29.89S
$$

NCZ012>017-030>032-020200-
NORTH CENTRAL AND EASTERN NORTH CAROLINA

CITY           SKY/WX    TMP DP  RH WIND       PRES   REMARKS
ROANOKE RAPIDS FAIR      75  70  83 S3        29.92R
RALEIGH        CLOUDY    81  70  69 SW8       29.94R
ELIZABETH CITY CLEAR     75  70  84 SW3       29.92R
AHOSKIE*       MOCLDY    74  70  89 CALM      29.92S
EDENTON*         N/A     82  71  70 SW7       29.92S
CURRITUCK*     CLEAR     79  66  64 CALM      29.92S
KILL DEVIL HLS PTCLDY    82  71  70 SW5       29.91S
MANTEO         CLEAR     82  74  77 SW10      29.92S
CAPE HATTERAS  CLEAR     79  74  84 SW13      29.95R
TARBORO*         N/A     80  69  69 SW5       29.94R
GOLDSBORO      MOCLDY    78  72  81 SW5       29.94R
WASHINGTON     CLEAR     79  71  77 SW6       29.94S
GREENVILLE     PTCLDY    81  72  74 SW8       29.96R
NEW BERN       CLEAR     78  73  84 SW5       29.96R
WILMINGTON     PTCLDY    80  74  81 SW8       29.97R
$$

VAZ048-020200-
ELSEWHERE

CITY           SKY/WX    TMP DP  RH WIND       PRES   REMARKS
HARRISBURG PA  PTCLDY    71  63  75 CALM      29.87R
BALTIMORE      MOCLDY    78  63  59 N3        29.87R
ANNAPOLIS      CLOUDY    78  67  68 W3        29.86R
ANDREWS AFB    RAIN      70  67  91 NW6       29.87F
PHILADELPHIA   MOCLDY    81  58  45 W10       29.86R
HENDERSON NC   MOCLDY    77  67  71 S6        29.94R
GREENSBORO     CLOUDY    72  67  84 S10       29.96R
ROCKY MOUNT    MOCLDY    80  71  74 S8        29.94R
$$

VAZ100-020200-
MARINE

STATION/POSITION TIME  TEMP    WIND        PRES    WAVE   SWELL
                       AIR SEA DIR/SP/G            HT/PER HT/PER
                 (UTC) (F)     (DEG/KT/KT) (MB)    (FT/S) (FT/S)
BRANDYWINE LGT   0000   81 73  250/ 12/ 12 1011.0R
CAPE MAY NJ      0000   77 80  230/  6/  8 1010.6R
LEWES DE         0000   81 72  230/  4/  5 1011.0R
15NM E FENWICK I 0050   75 74              1011.3R   4/ 7
OCEAN-CITY-INLET 0000   79 73  250/  5/  7 1011.1R
WACHAPREAGUE VA  0000   81 82  240/  4/  6 1011.9R
THOMAS POINT MD  0100   77     210/  7     1011.8
GOOSES REEF MD   0100   81 79  230/  8/ 10 1012.2R
COVE POINT MD    0000   82     240/  7/ 10 1011.5R
SOLOMONS ISLAND  0000      79                N/A
BISHOPS HEAD MD  0000   82     210/ 10/ 13 1010.9R
PINEY POINT MD   0000          220/  6/  7   N/A
CAMBRIDGE MD     0000   82 79  210/  5/  6 1010.6R
LEWISETTA VA     0000   82 83  230/  7/  8 1011.0R
RAPPAHANNOCK LGT 0000          220/ 10/ 11 1012.5R
STINGRAY PT      0100   82 81  230/ 10/ 12 1012.2R   1
YORK RVR RNG VA  0000   82     230/ 11/ 13 1011.5R
YORKTOWN VA      0000   82 80  220/  5/ 10 1011.8R
JAMESTOWN VA     0100   80 83  190/  4/  6   N/A
DOMINION TERM VA 0000   82     230/  8/  9 1012.3R
KIPTOPEKE VA     0000      85  230/ 10/ 13   N/A
CHES BAY BRIDGE  0000   82 77  220/ 10/ 12 1012.0R
CAPE HENRY VA    0000   83     230/  5/  7 1010.8R
CHESAPEAKE LGHT  0000   81     240/ 11/ 11 1013.1R
WILLOUBY STN VA  0000   82     250/  9/ 10 1013.3R
CAPE HENRY BUOY  0028      78                N/A     3/ 8
1ST LANDING BUOY 0100      76              1012.1R   2/ 4
CAPE CHARLES BUO 0026      76                N/A     3/ 8   3/ 8
OFFSHORE WE BUOY 0011      79                N/A     4/ 7   3/ 7
64NM E OF VA BCH 0050   78 77  210/ 10/ 12 1012.6R   5/ 8   5/ 8
DUCK PIER NC     0000   83 67  250/  7/  9 1012.1R
44100 DUCK FRF   0024      78                N/A     3/ 8
44056 DUCK FRF   0011      73                N/A     2/ 8
OREGON INLET NC  0000   81 84  210/ 14/ 17 1013.1R
HATTERAS NC      0000   78 82  210/ 10/ 14 1013.3R
DIAMOND SHLS NC  0050   80 83  220/ 17/ 19 1013.9R   5/ 7   3/ 7
CAPE LOOKOUT NC  0100   79     230/ 13/ 18 1014.2R
$$


USA.gov is the U.S. government's official web portal to all federal, state and local government web resources and services.